Regional Weather Roundup
Issued by NWS

Home | Current Version | Previous Version | Text Only | Print | Product List | Glossary Off
Versions: 1 2 3 4 5 6 7 8 9 10 11 12 13 14 15 16 17 18 19 20 21 22 23 24 25 26 27 28 29 30 31 32 33 34 35 36 37 38 39 40 41 42 43 44 45 46 47 48 49 50

363
ASUS45 KBOU 241507
RWRCO

WEATHER ROUNDUP FOR COLORADO
NATIONAL WEATHER SERVICE DENVER/BOULDER CO
900 AM MDT SUN JUL 24 2016

NOTE: "FAIR" INDICATES FEW OR NO CLOUDS BELOW 12000 FEET WITH NO
SIGNIFICANT WEATHER AND/OR OBSTRUCTIONS TO VISIBILITY.

COZ001>005-013-030-031-241600-
...NORTHWEST COLORADO...

CITY           SKY/WX    TMP DP  RH WIND       PRES   REMARKS
CRAIG          FAIR      73  43  33 VRB5      30.26S
HAYDEN         FAIR      70  41  35 E10       30.28S
MEEKER         FAIR      69  46  43 S3        30.27R
MOUNT WERNER   NOT AVBL
STEAMBOAT SPGS FAIR      65  43  45 N3        30.31S
WALDEN         FAIR      63  39  42 SE7       30.41S
$$

COZ006>008-011-241600-
...WEST CENTRAL VALLEYS...

CITY           SKY/WX    TMP DP  RH WIND       PRES   REMARKS
GRAND JUNCTION FAIR      80  44  27 SE18      30.14R
MONTROSE       FAIR      76  46  34 CALM      30.23F
EAGLE          SUNNY     70  41  35 CALM      30.33S
RIFLE          FAIR      77  46  33 NE9       30.21S
DELTA          FAIR      81  42  25 E5        30.19F
NUCLA          FAIR      77  41  27 CALM      30.25S
$$

COZ017>023-064>068-241600-
...SOUTHWEST COLORADO...

CITY           SKY/WX    TMP DP  RH WIND       PRES   REMARKS
DURANGO        FAIR      73  44  35 SE5       30.28S
CORTEZ         FAIR      79  42  26 W3        30.21R
PAGOSA SPRINGS FAIR      72  41  33 CALM      30.38S
TELLURIDE      FAIR      61  41  48 CALM      30.51S THUNDER
WOLF CREEK PAS FAIR      55  41  58 NE5       30.74R
$$

COZ009-010-012-014-032>034-037-058>063-241600-
...CENTRAL COLORADO...

CITY           SKY/WX    TMP DP  RH WIND       PRES   REMARKS
ASPEN          FAIR      66  47  50 SE10      30.39F
BUENA VISTA    FAIR      63  41  43 NW16G23   30.42F
COPPER MTN     FAIR      55  34  44 CALM      30.72S
BERTHOUD PASS  CLOUDY    46  32  57 W12G20    30.74S
COTTONWOOD PAS FAIR      63  39  42 SE3       30.56S
GUNNISON       FAIR      61  43  51 NE5       30.45S
KREMMLING      FAIR      61  45  55 CALM      30.39F
LEADVILLE      FAIR      54  42  64 CALM      30.56F
MONARCH PASS   FAIR      54  36  50 SW9       30.82S
SALIDA         FAIR      66  46  47 S5        30.48F
SUNLIGHT       FAIR      59  37  44 SE3       30.63S
WILKERSON PASS CLOUDY    54  36  50 N10G22    30.70R
$$

COZ069>075-241600-
...SAN LUIS VALLEY/SANGRE DE CRISTO MOUNTAINS...

CITY           SKY/WX    TMP DP  RH WIND       PRES   REMARKS
ALAMOSA        FAIR      69  48  47 NW7       30.38R
LA VETA PASS   FAIR      63  41  45 CALM      30.58R
SAGUACHE       FAIR      68  43  40 NW15      30.41S
$$

COZ035-036-038>040-241600-
...NORTHERN COLORADO FRONT RANGE...

CITY           SKY/WX    TMP DP  RH WIND       PRES   REMARKS
DENVER INTL AP PTSUNNY   78  50  37 CALM      30.18R
DMNS CITY PARK   N/A     74  51  44 S8        30.18S
AURORA         PTSUNNY   77  48  35 SW8       30.20R
FRONT RANGE AP PTSUNNY   77  50  38 W6        30.20R
ERIE MUNI ARPT FAIR      74  50  43 CALM      30.17R
BOULDER MUN AP FAIR      72  54  53 CALM      30.18R
CENTENNIAL     FAIR      79  42  26 W10       30.22R
BROOMFIELD     PTSUNNY   73  48  40 CALM      30.20R
LONGMONT       FAIR      75  54  46 CALM      30.18R
$$

COZ041-046-047-076>085-087-088-241600-
...PIKES PEAK/PALMER DIVIDE AND SOUTHERN FOOTHILLS...

CITY           SKY/WX    TMP DP  RH WIND       PRES   REMARKS
COLO. SPRINGS  FAIR      75  51  43 SE7       30.28R
A. F. ACADEMY  FAIR      75  49  39 VRB2      30.28R
SCHRIEVER AFB  NOT AVBL
ELLICOTT       FAIR     N/A N/A N/A S8        30.25S
FALCON         FAIR      73  49  43 SE6       30.33R
FORT CARSON    FAIR      76  50  40 E3        30.24R
LIMON          FAIR      76  53  44 SE8       30.22R
MONUMENT HILL  FAIR      72  46  40 SW5       30.33R
TRINIDAD       NOT AVBL
$$

COZ042>045-048>051-090-091-241600-
...NORTHEAST COLORADO...

CITY           SKY/WX    TMP DP  RH WIND       PRES   REMARKS
GREELEY ARPT   FAIR      72  55  56 E3        30.16F
AKRON          FAIR      74  60  61 E13       30.19R
BURLINGTON     FAIR      77  63  61 N8        30.15R
WRAY           FAIR      79  52  38 E12       30.15R
STERLING       FAIR      77  63  61 E12G18    30.13F
HOLYOKE        PTSUNNY   79  55  44 W3        30.17R
FORT MORGAN    FAIR      72  56  57 E12       30.15S
$$

COZ086-089-092>099-241600-
...SOUTHEAST COLORADO...

CITY           SKY/WX    TMP DP  RH WIND       PRES   REMARKS
PUEBLO         FAIR      79  53  40 CALM      30.16F
LA JUNTA       FAIR      78  60  53 N5        30.13S
LAMAR          FAIR      74  66  76 W6        30.09R
SPRINGFIELD      N/A     77  58  51 NW8       30.12R
$$




USA.gov is the U.S. government's official web portal to all federal, state and local government web resources and services.